contact:dominique.lefevre@mio.osupytheas.fr, maurice.libes@osupytheas.fr, didier.mallarino@osupytheas.fr
Project:EMSO http://www.emso-fr.org/EMSO-France
Depth: 2436.0 m
Title:EMSO Ligure Ouest : Data MII capteur MICROCAT
DateTime_Computer,Latitude,Longitude,Temperature,Conductivity,Pressure,DateTime_Instrument
DateTime_Computer,Latitude,Longitude,degC,S m-1,dbar,DateTime_Instrument
2023-07-03T00:00:11Z,42.805,6.029,13.3024,4.60083,2470.646,2023-7-03T02:02:27Z
2023-07-03T00:03:14Z,42.805,6.029,13.3024,4.60082,2470.661,2023-7-03T02:05:30Z
2023-07-03T00:06:17Z,42.805,6.029,13.3028,4.60082,2470.661,2023-7-03T02:08:33Z
2023-07-03T00:09:20Z,42.805,6.029,13.3029,4.60084,2470.67,2023-7-03T02:11:36Z
2023-07-03T00:12:23Z,42.805,6.029,13.3022,4.60082,2470.646,2023-7-03T02:14:39Z
2023-07-03T00:15:26Z,42.805,6.029,13.3028,4.60082,2470.67,2023-7-03T02:17:42Z
2023-07-03T00:18:29Z,42.805,6.029,13.3025,4.60084,2470.646,2023-7-03T02:20:45Z
2023-07-03T00:21:32Z,42.805,6.029,13.3029,4.60084,2470.67,2023-7-03T02:23:48Z
2023-07-03T00:24:36Z,42.805,6.029,13.3024,4.60082,2470.646,2023-7-03T02:26:51Z
2023-07-03T00:27:39Z,42.805,6.029,13.3024,4.60084,2470.646,2023-7-03T02:29:54Z
2023-07-03T00:30:42Z,42.805,6.029,13.3027,4.60082,2470.646,2023-7-03T02:32:57Z
2023-07-03T00:33:45Z,42.805,6.029,13.3028,4.60082,2470.67,2023-7-03T02:36:00Z
2023-07-03T00:36:48Z,42.805,6.029,13.3026,4.60082,2470.67,2023-7-03T02:39:03Z
2023-07-03T00:39:51Z,42.805,6.029,13.3029,4.60083,2470.661,2023-7-03T02:42:06Z
2023-07-03T00:42:54Z,42.805,6.029,13.3028,4.60082,2470.624,2023-7-03T02:45:10Z
2023-07-03T00:45:57Z,42.805,6.029,13.3024,4.60086,2470.624,2023-7-03T02:48:13Z
2023-07-03T00:49:00Z,42.805,6.029,13.3026,4.60084,2470.624,2023-7-03T02:51:16Z
2023-07-03T00:52:03Z,42.805,6.029,13.3024,4.60084,2470.637,2023-7-03T02:54:19Z
2023-07-03T00:55:06Z,42.805,6.029,13.3027,4.60084,2470.646,2023-7-03T02:57:22Z
2023-07-03T00:58:09Z,42.805,6.029,13.3028,4.60083,2470.661,2023-7-03T03:00:25Z
2023-07-03T01:01:12Z,42.805,6.029,13.3027,4.60083,2470.624,2023-7-03T03:03:28Z
2023-07-03T01:04:15Z,42.805,6.029,13.3026,4.60082,2470.646,2023-7-03T03:06:31Z
2023-07-03T01:07:19Z,42.805,6.029,13.3027,4.60084,2470.661,2023-7-03T03:09:34Z
2023-07-03T01:10:22Z,42.805,6.029,13.3025,4.60083,2470.661,2023-7-03T03:12:37Z
2023-07-03T01:13:25Z,42.805,6.029,13.3027,4.60081,2470.646,2023-7-03T03:15:40Z
2023-07-03T01:16:28Z,42.805,6.029,13.3024,4.60082,2470.661,2023-7-03T03:18:43Z
2023-07-03T01:19:31Z,42.805,6.029,13.3027,4.60082,2470.624,2023-7-03T03:21:47Z
2023-07-03T01:22:34Z,42.805,6.029,13.3027,4.60084,2470.637,2023-7-03T03:24:50Z
2023-07-03T01:25:37Z,42.805,6.029,13.3024,4.60081,2470.624,2023-7-03T03:27:53Z
2023-07-03T01:28:40Z,42.805,6.029,13.3027,4.60082,2470.624,2023-7-03T03:30:56Z
2023-07-03T01:31:43Z,42.805,6.029,13.3026,4.60082,2470.661,2023-7-03T03:33:59Z
2023-07-03T01:34:46Z,42.805,6.029,13.3024,4.60084,2470.67,2023-7-03T03:37:02Z
2023-07-03T01:37:49Z,42.805,6.029,13.3025,4.60083,2470.646,2023-7-03T03:40:05Z
2023-07-03T01:40:52Z,42.805,6.029,13.3024,4.60081,2470.624,2023-7-03T03:43:08Z
2023-07-03T01:43:56Z,42.805,6.029,13.3023,4.60081,2470.646,2023-7-03T03:46:11Z
2023-07-03T01:46:59Z,42.805,6.029,13.3024,4.60082,2470.624,2023-7-03T03:49:14Z
2023-07-03T01:50:02Z,42.805,6.029,13.3026,4.60083,2470.637,2023-7-03T03:52:17Z
2023-07-03T01:53:05Z,42.805,6.029,13.3027,4.60083,2470.624,2023-7-03T03:55:20Z
2023-07-03T01:56:08Z,42.805,6.029,13.3024,4.60081,2470.661,2023-7-03T03:58:23Z
2023-07-03T01:59:11Z,42.805,6.029,13.3025,4.60082,2470.614,2023-7-03T04:01:27Z
2023-07-03T02:02:14Z,42.805,6.029,13.3026,4.60082,2470.646,2023-7-03T04:04:30Z
2023-07-03T02:05:17Z,42.805,6.029,13.3022,4.60081,2470.67,2023-7-03T04:07:33Z
2023-07-03T02:08:20Z,42.805,6.029,13.3026,4.60084,2470.646,2023-7-03T04:10:36Z
2023-07-03T02:11:23Z,42.805,6.029,13.3024,4.60082,2470.624,2023-7-03T04:13:39Z
2023-07-03T02:14:26Z,42.805,6.029,13.3026,4.60082,2470.646,2023-7-03T04:16:42Z
2023-07-03T02:17:29Z,42.805,6.029,13.3024,4.60082,2470.624,2023-7-03T04:19:45Z
2023-07-03T02:20:32Z,42.805,6.029,13.3023,4.60082,2470.646,2023-7-03T04:22:48Z
2023-07-03T02:23:36Z,42.805,6.029,13.3024,4.60081,2470.637,2023-7-03T04:25:51Z
2023-07-03T02:26:39Z,42.805,6.029,13.3024,4.60083,2470.646,2023-7-03T04:28:54Z
2023-07-03T02:29:42Z,42.805,6.029,13.3025,4.60081,2470.646,2023-7-03T04:31:57Z
2023-07-03T02:32:45Z,42.805,6.029,13.3025,4.60083,2470.646,2023-7-03T04:35:00Z
2023-07-03T02:35:48Z,42.805,6.029,13.3023,4.60082,2470.646,2023-7-03T04:38:03Z
2023-07-03T02:38:51Z,42.805,6.029,13.3023,4.60082,2470.646,2023-7-03T04:41:07Z
2023-07-03T02:41:54Z,42.805,6.029,13.3024,4.60082,2470.624,2023-7-03T04:44:10Z
2023-07-03T02:44:57Z,42.805,6.029,13.3025,4.60081,2470.633,2023-7-03T04:47:13Z
2023-07-03T02:48:00Z,42.805,6.029,13.3026,4.60081,2470.646,2023-7-03T04:50:16Z
2023-07-03T02:51:03Z,42.805,6.029,13.3026,4.60082,2470.684,2023-7-03T04:53:19Z
2023-07-03T02:54:06Z,42.805,6.029,13.3025,4.60081,2470.624,2023-7-03T04:56:22Z
2023-07-03T02:57:09Z,42.805,6.029,13.3024,4.60081,2470.67,2023-7-03T04:59:25Z
2023-07-03T03:00:12Z,42.805,6.029,13.3024,4.60082,2470.624,2023-7-03T05:02:28Z
2023-07-03T03:03:16Z,42.805,6.029,13.3024,4.60081,2470.646,2023-7-03T05:05:31Z
2023-07-03T03:06:19Z,42.805,6.029,13.3031,4.60081,2470.67,2023-7-03T05:08:34Z
2023-07-03T03:09:22Z,42.805,6.029,13.3027,4.60082,2470.67,2023-7-03T05:11:37Z
2023-07-03T03:12:25Z,42.805,6.029,13.3021,4.60082,2470.684,2023-7-03T05:14:40Z
2023-07-03T03:15:28Z,42.805,6.029,13.3024,4.60081,2470.661,2023-7-03T05:17:44Z
2023-07-03T03:18:31Z,42.805,6.029,13.3024,4.60083,2470.693,2023-7-03T05:20:47Z
2023-07-03T03:21:34Z,42.805,6.029,13.3021,4.60081,2470.684,2023-7-03T05:23:50Z
2023-07-03T03:24:37Z,42.805,6.029,13.3022,4.60081,2470.67,2023-7-03T05:26:53Z
2023-07-03T03:27:40Z,42.805,6.029,13.3024,4.60083,2470.67,2023-7-03T05:29:56Z
2023-07-03T03:30:43Z,42.805,6.029,13.3024,4.60081,2470.693,2023-7-03T05:32:59Z
2023-07-03T03:33:46Z,42.805,6.029,13.3026,4.60081,2470.693,2023-7-03T05:36:02Z
2023-07-03T03:36:49Z,42.805,6.029,13.3025,4.60082,2470.684,2023-7-03T05:39:05Z
2023-07-03T03:39:53Z,42.805,6.029,13.3027,4.60081,2470.693,2023-7-03T05:42:08Z
2023-07-03T03:42:56Z,42.805,6.029,13.3026,4.60082,2470.661,2023-7-03T05:45:11Z
2023-07-03T03:45:59Z,42.805,6.029,13.3023,4.60082,2470.707,2023-7-03T05:48:14Z
2023-07-03T03:49:02Z,42.805,6.029,13.3024,4.60081,2470.646,2023-7-03T05:51:17Z
2023-07-03T03:52:05Z,42.805,6.029,13.3027,4.60082,2470.67,2023-7-03T05:54:20Z
2023-07-03T03:55:08Z,42.805,6.029,13.3026,4.60083,2470.67,2023-7-03T05:57:24Z
2023-07-03T03:58:11Z,42.805,6.029,13.3026,4.60082,2470.67,2023-7-03T06:00:27Z
2023-07-03T04:01:14Z,42.805,6.029,13.3024,4.60081,2470.693,2023-7-03T06:03:30Z
2023-07-03T04:04:17Z,42.805,6.029,13.3025,4.60081,2470.693,2023-7-03T06:06:33Z
2023-07-03T04:07:20Z,42.805,6.029,13.3024,4.60081,2470.67,2023-7-03T06:09:36Z
2023-07-03T04:10:23Z,42.805,6.029,13.3024,4.60082,2470.707,2023-7-03T06:12:39Z
2023-07-03T04:13:26Z,42.805,6.029,13.3024,4.60081,2470.693,2023-7-03T06:15:42Z
2023-07-03T04:16:29Z,42.805,6.029,13.3021,4.60082,2470.693,2023-7-03T06:18:45Z
2023-07-03T04:19:33Z,42.805,6.029,13.3025,4.60081,2470.707,2023-7-03T06:21:48Z
2023-07-03T04:22:36Z,42.805,6.029,13.3024,4.60082,2470.717,2023-7-03T06:24:51Z
2023-07-03T04:25:39Z,42.805,6.029,13.3024,4.60082,2470.684,2023-7-03T06:27:54Z
2023-07-03T04:28:42Z,42.805,6.029,13.3028,4.60082,2470.717,2023-7-03T06:30:57Z
2023-07-03T04:31:45Z,42.805,6.029,13.3026,4.60081,2470.693,2023-7-03T06:34:01Z
2023-07-03T04:34:48Z,42.805,6.029,13.3028,4.60081,2470.67,2023-7-03T06:37:04Z
2023-07-03T04:37:51Z,42.805,6.029,13.3022,4.60081,2470.67,2023-7-03T06:40:07Z
2023-07-03T04:40:54Z,42.805,6.029,13.3023,4.60081,2470.707,2023-7-03T06:43:10Z
2023-07-03T04:43:57Z,42.805,6.029,13.3026,4.60081,2470.693,2023-7-03T06:46:13Z
2023-07-03T04:47:00Z,42.805,6.029,13.3025,4.60081,2470.693,2023-7-03T06:49:16Z
2023-07-03T04:50:03Z,42.805,6.029,13.3028,4.60084,2470.717,2023-7-03T06:52:19Z
2023-07-03T04:53:06Z,42.805,6.029,13.3024,4.60082,2470.717,2023-7-03T06:55:22Z
2023-07-03T04:56:09Z,42.805,6.029,13.3029,4.60082,2470.684,2023-7-03T06:58:25Z
2023-07-03T04:59:13Z,42.805,6.029,13.3020,4.60081,2470.717,2023-7-03T07:01:28Z
2023-07-03T05:02:16Z,42.805,6.029,13.3024,4.60081,2470.73,2023-7-03T07:04:31Z
2023-07-03T05:05:19Z,42.805,6.029,13.3024,4.60081,2470.754,2023-7-03T07:07:34Z
2023-07-03T05:08:22Z,42.805,6.029,13.3024,4.60081,2470.74,2023-7-03T07:10:37Z
2023-07-03T05:11:25Z,42.805,6.029,13.3027,4.60081,2470.717,2023-7-03T07:13:40Z
2023-07-03T05:14:28Z,42.805,6.029,13.3025,4.60084,2470.717,2023-7-03T07:16:44Z
2023-07-03T05:17:31Z,42.805,6.029,13.3020,4.60081,2470.754,2023-7-03T07:19:47Z
2023-07-03T05:20:34Z,42.805,6.029,13.3023,4.60081,2470.717,2023-7-03T07:22:50Z
2023-07-03T05:23:37Z,42.805,6.029,13.3022,4.60081,2470.707,2023-7-03T07:25:53Z
2023-07-03T05:26:40Z,42.805,6.029,13.3030,4.60081,2470.717,2023-7-03T07:28:56Z
2023-07-03T05:29:43Z,42.805,6.029,13.3025,4.60081,2470.717,2023-7-03T07:31:59Z
2023-07-03T05:32:46Z,42.805,6.029,13.3024,4.60082,2470.74,2023-7-03T07:35:02Z
2023-07-03T05:35:49Z,42.805,6.029,13.3024,4.60083,2470.74,2023-7-03T07:38:05Z
2023-07-03T05:38:53Z,42.805,6.029,13.3025,4.60081,2470.763,2023-7-03T07:41:08Z
2023-07-03T05:41:56Z,42.805,6.029,13.3024,4.60084,2470.763,2023-7-03T07:44:11Z
2023-07-03T05:44:59Z,42.805,6.029,13.3023,4.60082,2470.74,2023-7-03T07:47:14Z
2023-07-03T05:48:02Z,42.805,6.029,13.3023,4.60082,2470.763,2023-7-03T07:50:17Z
2023-07-03T05:51:05Z,42.805,6.029,13.3024,4.60081,2470.8,2023-7-03T07:53:21Z
2023-07-03T05:54:08Z,42.805,6.029,13.3026,4.60081,2470.763,2023-7-03T07:56:24Z
2023-07-03T05:57:11Z,42.805,6.029,13.3024,4.60081,2470.763,2023-7-03T07:59:27Z
2023-07-03T06:00:14Z,42.805,6.029,13.3024,4.60081,2470.74,2023-7-03T08:02:30Z
2023-07-03T06:03:17Z,42.805,6.029,13.3024,4.60081,2470.726,2023-7-03T08:05:33Z
2023-07-03T06:06:20Z,42.805,6.029,13.3026,4.60082,2470.777,2023-7-03T08:08:36Z
2023-07-03T06:09:23Z,42.805,6.029,13.3025,4.60082,2470.74,2023-7-03T08:11:39Z
2023-07-03T06:12:26Z,42.805,6.029,13.3023,4.60083,2470.763,2023-7-03T08:14:42Z
2023-07-03T06:15:29Z,42.805,6.029,13.3026,4.60081,2470.74,2023-7-03T08:17:45Z
2023-07-03T06:18:33Z,42.805,6.029,13.3025,4.60081,2470.754,2023-7-03T08:20:48Z
2023-07-03T06:21:36Z,42.805,6.029,13.3024,4.60081,2470.787,2023-7-03T08:23:51Z
2023-07-03T06:24:39Z,42.805,6.029,13.3023,4.60083,2470.763,2023-7-03T08:26:54Z
2023-07-03T06:27:42Z,42.805,6.029,13.3022,4.60082,2470.763,2023-7-03T08:29:57Z
2023-07-03T06:30:45Z,42.805,6.029,13.3026,4.60081,2470.73,2023-7-03T08:33:01Z
2023-07-03T06:33:48Z,42.805,6.029,13.3025,4.60081,2470.787,2023-7-03T08:36:04Z
2023-07-03T06:36:51Z,42.805,6.029,13.3021,4.60082,2470.763,2023-7-03T08:39:07Z
2023-07-03T06:39:54Z,42.805,6.029,13.3029,4.60082,2470.763,2023-7-03T08:42:10Z
2023-07-03T06:42:57Z,42.805,6.029,13.3021,4.60081,2470.763,2023-7-03T08:45:13Z
2023-07-03T06:46:00Z,42.805,6.029,13.3026,4.60082,2470.74,2023-7-03T08:48:16Z
2023-07-03T06:49:03Z,42.805,6.029,13.3024,4.60082,2470.777,2023-7-03T08:51:19Z
2023-07-03T06:52:06Z,42.805,6.029,13.3028,4.60083,2470.73,2023-7-03T08:54:22Z
2023-07-03T06:55:09Z,42.805,6.029,13.3026,4.60081,2470.777,2023-7-03T08:57:25Z
2023-07-03T06:58:13Z,42.805,6.029,13.3026,4.60081,2470.74,2023-7-03T09:00:28Z
2023-07-03T07:01:16Z,42.805,6.029,13.3026,4.60082,2470.74,2023-7-03T09:03:31Z
2023-07-03T07:04:19Z,42.805,6.029,13.3024,4.60081,2470.74,2023-7-03T09:06:34Z
2023-07-03T07:07:22Z,42.805,6.029,13.3024,4.60081,2470.763,2023-7-03T09:09:37Z
2023-07-03T07:10:25Z,42.805,6.029,13.3026,4.60082,2470.777,2023-7-03T09:12:40Z
2023-07-03T07:13:28Z,42.805,6.029,13.3024,4.60082,2470.763,2023-7-03T09:15:44Z
2023-07-03T07:16:31Z,42.805,6.029,13.3022,4.60082,2470.787,2023-7-03T09:18:47Z
2023-07-03T07:19:34Z,42.805,6.029,13.3026,4.60082,2470.74,2023-7-03T09:21:50Z
2023-07-03T07:22:37Z,42.805,6.029,13.3021,4.60083,2470.74,2023-7-03T09:24:53Z
2023-07-03T07:25:40Z,42.805,6.029,13.3026,4.60082,2470.754,2023-7-03T09:27:56Z
2023-07-03T07:28:43Z,42.805,6.029,13.3025,4.60081,2470.717,2023-7-03T09:30:59Z
2023-07-03T07:31:46Z,42.805,6.029,13.3022,4.60082,2470.693,2023-7-03T09:34:02Z
2023-07-03T07:34:50Z,42.805,6.029,13.3027,4.60081,2470.726,2023-7-03T09:37:05Z
2023-07-03T07:37:53Z,42.805,6.029,13.3024,4.60081,2470.787,2023-7-03T09:40:08Z
2023-07-03T07:40:56Z,42.805,6.029,13.3020,4.60081,2470.754,2023-7-03T09:43:11Z
2023-07-03T07:43:59Z,42.805,6.029,13.3025,4.60081,2470.763,2023-7-03T09:46:14Z
2023-07-03T07:47:02Z,42.805,6.029,13.3021,4.60081,2470.754,2023-7-03T09:49:17Z
2023-07-03T07:50:05Z,42.805,6.029,13.3024,4.60082,2470.754,2023-7-03T09:52:21Z
2023-07-03T07:53:08Z,42.805,6.029,13.3024,4.60081,2470.74,2023-7-03T09:55:24Z
2023-07-03T07:56:11Z,42.805,6.029,13.3024,4.60081,2470.777,2023-7-03T09:58:27Z
2023-07-03T07:59:14Z,42.805,6.029,13.3023,4.60081,2470.73,2023-7-03T10:01:30Z
2023-07-03T08:02:17Z,42.805,6.029,13.3024,4.60083,2470.763,2023-7-03T10:04:33Z
2023-07-03T08:05:20Z,42.805,6.029,13.3024,4.60081,2470.74,2023-7-03T10:07:36Z
2023-07-03T08:08:23Z,42.805,6.029,13.3023,4.60082,2470.717,2023-7-03T10:10:39Z
2023-07-03T08:11:27Z,42.805,6.029,13.3026,4.60081,2470.754,2023-7-03T10:13:42Z
2023-07-03T08:14:30Z,42.805,6.029,13.3026,4.60082,2470.754,2023-7-03T10:16:45Z
2023-07-03T08:17:33Z,42.805,6.029,13.3022,4.60080,2470.74,2023-7-03T10:19:48Z
2023-07-03T08:20:36Z,42.805,6.029,13.3023,4.60081,2470.74,2023-7-03T10:22:51Z
2023-07-03T08:23:39Z,42.805,6.029,13.3024,4.60081,2470.717,2023-7-03T10:25:54Z
2023-07-03T08:26:42Z,42.805,6.029,13.3029,4.60080,2470.74,2023-7-03T10:28:58Z
2023-07-03T08:29:45Z,42.805,6.029,13.3022,4.60081,2470.693,2023-7-03T10:32:01Z
2023-07-03T08:32:47Z,42.805,6.029,13.3025,4.60081,2470.693,2023-7-03T10:35:03Z
2023-07-03T08:35:51Z,42.805,6.029,13.3025,4.60081,2470.73,2023-7-03T10:38:06Z
2023-07-03T08:38:54Z,42.805,6.029,13.3024,4.60081,2470.717,2023-7-03T10:41:09Z
2023-07-03T08:41:57Z,42.805,6.029,13.3024,4.60081,2470.693,2023-7-03T10:44:12Z
2023-07-03T08:45:00Z,42.805,6.029,13.3022,4.60081,2470.703,2023-7-03T10:47:15Z
2023-07-03T08:48:03Z,42.805,6.029,13.3025,4.60081,2470.717,2023-7-03T10:50:19Z
2023-07-03T08:51:06Z,42.805,6.029,13.3022,4.60080,2470.73,2023-7-03T10:53:22Z
2023-07-03T08:54:09Z,42.805,6.029,13.3021,4.60081,2470.717,2023-7-03T10:56:25Z
2023-07-03T08:57:12Z,42.805,6.029,13.3027,4.60080,2470.717,2023-7-03T10:59:28Z
2023-07-03T09:00:15Z,42.805,6.029,13.3022,4.60081,2470.717,2023-7-03T11:02:31Z
2023-07-03T09:03:18Z,42.805,6.029,13.3021,4.60081,2470.693,2023-7-03T11:05:34Z
2023-07-03T09:06:21Z,42.805,6.029,13.3023,4.60081,2470.73,2023-7-03T11:08:37Z
2023-07-03T09:09:24Z,42.805,6.029,13.3021,4.60081,2470.684,2023-7-03T11:11:40Z
2023-07-03T09:12:28Z,42.805,6.029,13.3024,4.60081,2470.707,2023-7-03T11:14:43Z
2023-07-03T09:15:31Z,42.805,6.029,13.3026,4.60081,2470.67,2023-7-03T11:17:46Z
2023-07-03T09:18:34Z,42.805,6.029,13.3024,4.60081,2470.693,2023-7-03T11:20:49Z
2023-07-03T09:21:37Z,42.805,6.029,13.3024,4.60081,2470.693,2023-7-03T11:23:52Z
2023-07-03T09:24:40Z,42.805,6.029,13.3021,4.60081,2470.693,2023-7-03T11:26:56Z
2023-07-03T09:27:43Z,42.805,6.029,13.3022,4.60082,2470.693,2023-7-03T11:29:59Z
2023-07-03T09:30:46Z,42.805,6.029,13.3022,4.60081,2470.693,2023-7-03T11:33:02Z
2023-07-03T09:33:49Z,42.805,6.029,13.3027,4.60081,2470.67,2023-7-03T11:36:05Z
2023-07-03T09:36:52Z,42.805,6.029,13.3020,4.60081,2470.693,2023-7-03T11:39:08Z
2023-07-03T09:39:55Z,42.805,6.029,13.3024,4.60080,2470.646,2023-7-03T11:42:11Z
2023-07-03T09:42:58Z,42.805,6.029,13.3024,4.60081,2470.67,2023-7-03T11:45:14Z
2023-07-03T09:46:01Z,42.805,6.029,13.3026,4.60081,2470.67,2023-7-03T11:48:17Z
2023-07-03T09:49:05Z,42.805,6.029,13.3021,4.60081,2470.707,2023-7-03T11:51:20Z
2023-07-03T09:52:08Z,42.805,6.029,13.3026,4.60081,2470.684,2023-7-03T11:54:23Z
2023-07-03T09:55:11Z,42.805,6.029,13.3022,4.60081,2470.684,2023-7-03T11:57:26Z
2023-07-03T09:58:14Z,42.805,6.029,13.3024,4.60082,2470.661,2023-7-03T12:00:29Z
2023-07-03T10:01:17Z,42.805,6.029,13.3022,4.60081,2470.67,2023-7-03T12:03:33Z
2023-07-03T10:04:20Z,42.805,6.029,13.3024,4.60081,2470.624,2023-7-03T12:06:36Z
2023-07-03T10:07:23Z,42.805,6.029,13.3024,4.60080,2470.693,2023-7-03T12:09:39Z
2023-07-03T10:10:26Z,42.805,6.029,13.3022,4.60081,2470.646,2023-7-03T12:12:42Z
2023-07-03T10:13:29Z,42.805,6.029,13.3020,4.60082,2470.624,2023-7-03T12:15:45Z
2023-07-03T10:16:32Z,42.805,6.029,13.3025,4.60081,2470.684,2023-7-03T12:18:48Z
2023-07-03T10:19:35Z,42.805,6.029,13.3024,4.60081,2470.67,2023-7-03T12:21:51Z
2023-07-03T10:22:38Z,42.805,6.029,13.3024,4.60081,2470.661,2023-7-03T12:24:54Z
2023-07-03T10:25:42Z,42.805,6.029,13.3023,4.60082,2470.624,2023-7-03T12:27:57Z
2023-07-03T10:28:45Z,42.805,6.029,13.3025,4.60083,2470.646,2023-7-03T12:31:00Z
2023-07-03T10:31:46Z,42.805,6.029,13.3026,4.60080,2470.624,2023-7-03T12:34:02Z
2023-07-03T10:34:49Z,42.805,6.029,13.3025,4.60081,2470.646,2023-7-03T12:37:05Z
2023-07-03T10:37:52Z,42.805,6.029,13.3026,4.60080,2470.646,2023-7-03T12:40:08Z
2023-07-03T10:40:55Z,42.805,6.029,13.3022,4.60080,2470.624,2023-7-03T12:43:11Z
2023-07-03T10:43:58Z,42.805,6.029,13.3021,4.60081,2470.637,2023-7-03T12:46:14Z
2023-07-03T10:47:02Z,42.805,6.029,13.3024,4.60081,2470.661,2023-7-03T12:49:17Z
2023-07-03T10:50:05Z,42.805,6.029,13.3022,4.60081,2470.624,2023-7-03T12:52:20Z
2023-07-03T10:53:08Z,42.805,6.029,13.3024,4.60079,2470.646,2023-7-03T12:55:23Z
2023-07-03T10:56:11Z,42.805,6.029,13.3024,4.60079,2470.624,2023-7-03T12:58:26Z
2023-07-03T10:59:14Z,42.805,6.029,13.3024,4.60080,2470.637,2023-7-03T13:01:30Z
2023-07-03T11:02:17Z,42.805,6.029,13.3023,4.60079,2470.646,2023-7-03T13:04:33Z
2023-07-03T11:05:20Z,42.805,6.029,13.3021,4.60079,2470.6,2023-7-03T13:07:36Z
2023-07-03T11:08:23Z,42.805,6.029,13.3022,4.60080,2470.6,2023-7-03T13:10:39Z
2023-07-03T11:11:26Z,42.805,6.029,13.3022,4.60080,2470.6,2023-7-03T13:13:42Z
2023-07-03T11:14:29Z,42.805,6.029,13.3021,4.60080,2470.637,2023-7-03T13:16:45Z
2023-07-03T11:17:32Z,42.805,6.029,13.3026,4.60079,2470.6,2023-7-03T13:19:48Z
2023-07-03T11:20:35Z,42.805,6.029,13.3026,4.60081,2470.624,2023-7-03T13:22:51Z
2023-07-03T11:23:39Z,42.805,6.029,13.3021,4.60081,2470.624,2023-7-03T13:25:54Z
2023-07-03T11:26:42Z,42.805,6.029,13.3024,4.60079,2470.624,2023-7-03T13:28:57Z
2023-07-03T11:29:45Z,42.805,6.029,13.3026,4.60079,2470.624,2023-7-03T13:32:00Z
2023-07-03T11:32:48Z,42.805,6.029,13.3020,4.60079,2470.6,2023-7-03T13:35:03Z
2023-07-03T11:35:51Z,42.805,6.029,13.3022,4.60079,2470.624,2023-7-03T13:38:07Z
2023-07-03T11:38:54Z,42.805,6.029,13.3021,4.60079,2470.6,2023-7-03T13:41:10Z
2023-07-03T11:41:57Z,42.805,6.029,13.3026,4.60081,2470.586,2023-7-03T13:44:13Z
2023-07-03T11:45:00Z,42.805,6.029,13.3022,4.60080,2470.6,2023-7-03T13:47:16Z
2023-07-03T11:48:03Z,42.805,6.029,13.3024,4.60079,2470.591,2023-7-03T13:50:19Z
2023-07-03T11:51:06Z,42.805,6.029,13.3023,4.60080,2470.591,2023-7-03T13:53:22Z
2023-07-03T11:54:09Z,42.805,6.029,13.3024,4.60079,2470.567,2023-7-03T13:56:25Z
2023-07-03T11:57:12Z,42.805,6.029,13.3019,4.60079,2470.577,2023-7-03T13:59:28Z
2023-07-03T12:00:16Z,42.805,6.029,13.3024,4.60081,2470.577,2023-7-03T14:02:31Z
2023-07-03T12:03:19Z,42.805,6.029,13.3021,4.60079,2470.577,2023-7-03T14:05:34Z
2023-07-03T12:06:22Z,42.805,6.029,13.3022,4.60080,2470.577,2023-7-03T14:08:37Z
2023-07-03T12:09:25Z,42.805,6.029,13.3021,4.60080,2470.577,2023-7-03T14:11:40Z
2023-07-03T12:12:28Z,42.805,6.029,13.3023,4.60081,2470.577,2023-7-03T14:14:43Z
2023-07-03T12:15:31Z,42.805,6.029,13.3022,4.60079,2470.6,2023-7-03T14:17:47Z
2023-07-03T12:18:34Z,42.805,6.029,13.3022,4.60079,2470.577,2023-7-03T14:20:50Z
2023-07-03T12:21:37Z,42.805,6.029,13.3019,4.60079,2470.6,2023-7-03T14:23:53Z
2023-07-03T12:24:40Z,42.805,6.029,13.3025,4.60080,2470.553,2023-7-03T14:26:56Z
2023-07-03T12:27:43Z,42.805,6.029,13.3022,4.60080,2470.577,2023-7-03T14:29:59Z
2023-07-03T12:30:45Z,42.805,6.029,13.3023,4.60080,2470.577,2023-7-03T14:33:00Z
2023-07-03T12:33:48Z,42.805,6.029,13.3025,4.60080,2470.553,2023-7-03T14:36:03Z
2023-07-03T12:36:51Z,42.805,6.029,13.3022,4.60080,2470.553,2023-7-03T14:39:07Z
2023-07-03T12:39:54Z,42.805,6.029,13.3023,4.60079,2470.577,2023-7-03T14:42:10Z
2023-07-03T12:42:57Z,42.805,6.029,13.3023,4.60080,2470.567,2023-7-03T14:45:13Z
2023-07-03T12:46:00Z,42.805,6.029,13.3019,4.60079,2470.553,2023-7-03T14:48:16Z
2023-07-03T12:49:03Z,42.805,6.029,13.3024,4.60080,2470.553,2023-7-03T14:51:19Z
2023-07-03T12:52:06Z,42.805,6.029,13.3018,4.60079,2470.567,2023-7-03T14:54:22Z
2023-07-03T12:55:09Z,42.805,6.029,13.3024,4.60079,2470.614,2023-7-03T14:57:25Z
2023-07-03T12:58:12Z,42.805,6.029,13.3021,4.60081,2470.614,2023-7-03T15:00:28Z
2023-07-03T13:01:16Z,42.805,6.029,13.3024,4.60079,2470.553,2023-7-03T15:03:31Z
2023-07-03T13:04:19Z,42.805,6.029,13.3021,4.60081,2470.539,2023-7-03T15:06:34Z
2023-07-03T13:07:22Z,42.805,6.029,13.3021,4.60080,2470.591,2023-7-03T15:09:37Z
2023-07-03T13:10:25Z,42.805,6.029,13.3022,4.60081,2470.591,2023-7-03T15:12:40Z
2023-07-03T13:13:28Z,42.805,6.029,13.3024,4.60079,2470.6,2023-7-03T15:15:44Z
2023-07-03T13:16:31Z,42.805,6.029,13.3021,4.60080,2470.567,2023-7-03T15:18:47Z
2023-07-03T13:19:34Z,42.805,6.029,13.3021,4.60080,2470.6,2023-7-03T15:21:50Z
2023-07-03T13:22:37Z,42.805,6.029,13.3024,4.60079,2470.553,2023-7-03T15:24:53Z
2023-07-03T13:25:40Z,42.805,6.029,13.3021,4.60079,2470.577,2023-7-03T15:27:56Z
2023-07-03T13:28:43Z,42.805,6.029,13.3021,4.60080,2470.577,2023-7-03T15:30:59Z
2023-07-03T13:31:46Z,42.805,6.029,13.3024,4.60080,2470.577,2023-7-03T15:34:02Z
2023-07-03T13:34:50Z,42.805,6.029,13.3021,4.60079,2470.553,2023-7-03T15:37:05Z
2023-07-03T13:37:53Z,42.805,6.029,13.3024,4.60080,2470.577,2023-7-03T15:40:08Z
2023-07-03T13:40:56Z,42.805,6.029,13.3023,4.60081,2470.553,2023-7-03T15:43:11Z
2023-07-03T13:43:59Z,42.805,6.029,13.3023,4.60079,2470.591,2023-7-03T15:46:14Z
2023-07-03T13:47:02Z,42.805,6.029,13.3022,4.60079,2470.577,2023-7-03T15:49:18Z
2023-07-03T13:50:05Z,42.805,6.029,13.3022,4.60081,2470.553,2023-7-03T15:52:21Z
2023-07-03T13:53:08Z,42.805,6.029,13.3021,4.60083,2470.577,2023-7-03T15:55:24Z
2023-07-03T13:56:11Z,42.805,6.029,13.3026,4.60079,2470.53,2023-7-03T15:58:27Z
2023-07-03T13:59:14Z,42.805,6.029,13.3022,4.60081,2470.577,2023-7-03T16:01:30Z
2023-07-03T14:02:17Z,42.805,6.029,13.3023,4.60080,2470.567,2023-7-03T16:04:33Z
2023-07-03T14:05:20Z,42.805,6.029,13.3022,4.60081,2470.553,2023-7-03T16:07:36Z
2023-07-03T14:08:23Z,42.805,6.029,13.3023,4.60080,2470.591,2023-7-03T16:10:39Z
2023-07-03T14:11:27Z,42.805,6.029,13.3024,4.60080,2470.567,2023-7-03T16:13:42Z
2023-07-03T14:14:30Z,42.805,6.029,13.3021,4.60081,2470.553,2023-7-03T16:16:45Z
2023-07-03T14:17:33Z,42.805,6.029,13.3022,4.60081,2470.624,2023-7-03T16:19:48Z
2023-07-03T14:20:36Z,42.805,6.029,13.3025,4.60081,2470.6,2023-7-03T16:22:51Z
2023-07-03T14:23:39Z,42.805,6.029,13.3021,4.60081,2470.6,2023-7-03T16:25:55Z
2023-07-03T14:26:42Z,42.805,6.029,13.3024,4.60080,2470.591,2023-7-03T16:28:58Z
2023-07-03T14:29:45Z,42.805,6.029,13.3024,4.60079,2470.553,2023-7-03T16:32:01Z
2023-07-03T14:32:48Z,42.805,6.029,13.3023,4.60080,2470.591,2023-7-03T16:35:04Z
2023-07-03T14:35:51Z,42.805,6.029,13.3024,4.60081,2470.577,2023-7-03T16:38:07Z
2023-07-03T14:38:54Z,42.805,6.029,13.3026,4.60081,2470.624,2023-7-03T16:41:10Z
2023-07-03T14:41:57Z,42.805,6.029,13.3024,4.60079,2470.624,2023-7-03T16:44:13Z
2023-07-03T14:45:00Z,42.805,6.029,13.3021,4.60082,2470.624,2023-7-03T16:47:16Z
2023-07-03T14:48:04Z,42.805,6.029,13.3026,4.60080,2470.614,2023-7-03T16:50:19Z
2023-07-03T14:51:07Z,42.805,6.029,13.3024,4.60079,2470.6,2023-7-03T16:53:22Z
2023-07-03T14:54:10Z,42.805,6.029,13.3024,4.60079,2470.591,2023-7-03T16:56:25Z
2023-07-03T14:57:13Z,42.805,6.029,13.3021,4.60081,2470.6,2023-7-03T16:59:28Z
2023-07-03T15:00:16Z,42.805,6.029,13.3026,4.60081,2470.624,2023-7-03T17:02:32Z
2023-07-03T15:03:19Z,42.805,6.029,13.3021,4.60081,2470.646,2023-7-03T17:05:35Z
2023-07-03T15:06:22Z,42.805,6.029,13.3021,4.60081,2470.661,2023-7-03T17:08:38Z
2023-07-03T15:09:25Z,42.805,6.029,13.3023,4.60081,2470.637,2023-7-03T17:11:41Z